When you browse on this site, cookies collect data to enhance your experience and personalize the content and advertising you see.
Visit our Privacy Policy to learn more. By continuing to use the site, you agree to this use of cookies and data.
  • In Romania
  • List of Countries
  • For 7 days
  • Water Temperature
  • Weather Map
  • Weather Widgets
  • user-avatar
    Login

    Hourly Weather Bangalore

    Today, 3 April, Friday

    Time Temperature Precipitation Wind Pressure Humidity
    00:00 +27°C° 0 mm 4 mps 683 mmHg 48%
    01:00 +26°C° 0 mm 3 mps 683 mmHg 51%
    02:00 +25°C° 0 mm 3 mps 682 mmHg 55%
    03:00 +24°C° 0 mm 2 mps 682 mmHg 56%
    04:00 +24°C° 0 mm 2 mps 682 mmHg 58%
    05:00 +23°C° 0 mm 2 mps 682 mmHg 60%
    06:00 +25°C° 0 mm 2 mps 683 mmHg 52%
    07:00 +26°C° 0 mm 3 mps 684 mmHg 44%
    08:00 +28°C° 0 mm 3 mps 685 mmHg 37%
    09:00 +30°C° 0 mm 4 mps 685 mmHg 31%
    10:00 +33°C° 0 mm 4 mps 685 mmHg 25%
    11:00 +36°C° 0 mm 5 mps 686 mmHg 19%
    12:00 +36°C° 0 mm 5 mps 685 mmHg 18%
    13:00 +37°C° 0 mm 5 mps 684 mmHg 16%
    14:00 +39°C° 0 mm 5 mps 684 mmHg 15%
    15:00 +37°C° 0 mm 5 mps 683 mmHg 16%
    16:00 +37°C° 0 mm 5 mps 683 mmHg 17%
    17:00 +36°C° 0 mm 5 mps 683 mmHg 18%
    18:00 +34°C° 0 mm 5 mps 683 mmHg 22%
    19:00 +33°C° 0 mm 5 mps 684 mmHg 25%
    20:00 +30°C° 0 mm 4 mps 684 mmHg 29%
    21:00 +29°C° 0 mm 4 mps 684 mmHg 32%
    22:00 +28°C° 0 mm 4 mps 684 mmHg 34%
    23:00 +27°C° 0 mm 4 mps 684 mmHg 36%

    Tomorrow, 4 April, Saturday

    Time Temperature Precipitation Wind Pressure Humidity
    00:00 +26°C° 0 mm 4 mps 684 mmHg 39%
    01:00 +25°C° 0 mm 3 mps 684 mmHg 42%
    02:00 +25°C° 0 mm 3 mps 683 mmHg 44%
    03:00 +24°C° 0 mm 2 mps 683 mmHg 46%
    04:00 +23°C° 0 mm 2 mps 683 mmHg 47%
    05:00 +22°C° 0 mm 1 mps 683 mmHg 49%
    06:00 +24°C° 0 mm 1 mps 684 mmHg 45%
    07:00 +26°C° 0 mm 2 mps 685 mmHg 42%
    08:00 +28°C° 0 mm 2 mps 686 mmHg 38%
    09:00 +30°C° 0 mm 3 mps 686 mmHg 31%
    10:00 +33°C° 0 mm 3 mps 686 mmHg 24%
    11:00 +35°C° 0 mm 4 mps 686 mmHg 16%
    12:00 +36°C° 0 mm 4 mps 685 mmHg 16%
    13:00 +37°C° 0 mm 5 mps 684 mmHg 16%
    14:00 +39°C° 0 mm 5 mps 684 mmHg 16%
    15:00 +37°C° 0 mm 5 mps 684 mmHg 17%
    16:00 +38°C° 0 mm 6 mps 683 mmHg 17%
    17:00 +36°C° 0 mm 6 mps 683 mmHg 18%
    18:00 +34°C° 0 mm 5 mps 684 mmHg 21%
    19:00 +33°C° 0 mm 5 mps 684 mmHg 24%
    20:00 +30°C° 0 mm 4 mps 684 mmHg 26%
    21:00 +29°C° 0 mm 4 mps 684 mmHg 29%
    22:00 +28°C° 0 mm 4 mps 685 mmHg 31%
    23:00 +27°C° 0 mm 4 mps 685 mmHg 33%

    Day after tomorrow, 5 April, Sunday

    Time Temperature Precipitation Wind Pressure Humidity
    00:00 +26°C° 0 mm 4 mps 684 mmHg 37%
    01:00 +25°C° 0 mm 3 mps 683 mmHg 42%
    02:00 +24°C° 0 mm 3 mps 683 mmHg 47%
    03:00 +24°C° 0 mm 3 mps 683 mmHg 49%
    04:00 +23°C° 0 mm 2 mps 683 mmHg 52%
    05:00 +22°C° 0 mm 1 mps 683 mmHg 55%
    06:00 +24°C° 0 mm 2 mps 684 mmHg 51%
    07:00 +25°C° 0 mm 2 mps 685 mmHg 46%
    08:00 +27°C° 0 mm 2 mps 686 mmHg 42%
    09:00 +30°C° 0 mm 3 mps 686 mmHg 34%
    10:00 +33°C° 0 mm 3 mps 686 mmHg 25%
    11:00 +36°C° 0 mm 4 mps 686 mmHg 16%
    12:00 +37°C° 0 mm 4 mps 685 mmHg 15%
    13:00 +37°C° 0 mm 4 mps 685 mmHg 14%
    14:00 +38°C° 0 mm 4 mps 684 mmHg 13%
    15:00 +38°C° 0 mm 4 mps 684 mmHg 13%
    16:00 +37°C° 0 mm 4 mps 683 mmHg 13%
    17:00 +37°C° 0 mm 4 mps 683 mmHg 13%
    18:00 +35°C° 0 mm 4 mps 683 mmHg 17%
    19:00 +33°C° 0 mm 4 mps 684 mmHg 21%
    20:00 +30°C° 0 mm 5 mps 684 mmHg 25%
    21:00 +29°C° 0 mm 4 mps 685 mmHg 34%
    22:00 +28°C° 0 mm 4 mps 685 mmHg 42%
    23:00 +27°C° 0 mm 4 mps 685 mmHg 51%

    6 April, Monday

    Time Temperature Precipitation Wind Pressure Humidity
    00:00 +26°C° 0 mm 3 mps 685 mmHg 55%
    01:00 +25°C° 0 mm 3 mps 684 mmHg 58%
    02:00 +24°C° 0 mm 3 mps 683 mmHg 61%
    03:00 +24°C° 0 mm 2 mps 683 mmHg 68%
    04:00 +23°C° 0 mm 2 mps 683 mmHg 74%
    05:00 +23°C° 0 mm 2 mps 683 mmHg 81%
    06:00 +25°C° 0 mm 2 mps 684 mmHg 74%
    07:00 +26°C° 0 mm 2 mps 685 mmHg 68%
    08:00 +28°C° 0 mm 3 mps 686 mmHg 61%
    09:00 +30°C° 0 mm 3 mps 686 mmHg 50%
    10:00 +32°C° 0 mm 2 mps 686 mmHg 39%
    11:00 +36°C° 0 mm 2 mps 686 mmHg 28%
    12:00 +36°C° 0 mm 2 mps 685 mmHg 25%
    13:00 +37°C° 0 mm 3 mps 684 mmHg 22%
    14:00 +38°C° 0 mm 3 mps 683 mmHg 19%
    15:00 +38°C° 0 mm 3 mps 683 mmHg 20%
    16:00 +37°C° 0 mm 2 mps 683 mmHg 20%
    17:00 +36°C° 0 mm 2 mps 682 mmHg 21%
    18:00 +35°C° 0 mm 2 mps 683 mmHg 23%
    19:00 +34°C° 0 mm 3 mps 683 mmHg 25%
    20:00 +33°C° 0 mm 4 mps 684 mmHg 28%
    21:00 +31°C° 0 mm 3 mps 684 mmHg 30%
    22:00 +31°C° 0 mm 3 mps 684 mmHg 32%
    23:00 +30°C° 0 mm 3 mps 684 mmHg 34%

    7 April, Tuesday

    Time Temperature Precipitation Wind Pressure Humidity
    00:00 +29°C° 0 mm 3 mps 684 mmHg 41%
    01:00 +28°C° 0 mm 2 mps 683 mmHg 48%
    02:00 +26°C° 0 mm 2 mps 683 mmHg 55%
    03:00 +26°C° 0 mm 2 mps 682 mmHg 59%
    04:00 +25°C° 0 mm 2 mps 682 mmHg 64%
    05:00 +25°C° 0 mm 1 mps 682 mmHg 69%
    06:00 +26°C° 0 mm 2 mps 683 mmHg 64%
    07:00 +28°C° 0 mm 2 mps 684 mmHg 58%
    08:00 +29°C° 0 mm 3 mps 685 mmHg 53%
    09:00 +31°C° 0 mm 2 mps 685 mmHg 45%
    10:00 +34°C° 0 mm 2 mps 685 mmHg 36%
    11:00 +36°C° 0 mm 1 mps 685 mmHg 28%
    12:00 +35°C° 0 mm 1 mps 684 mmHg 27%
    13:00 +35°C° 0 mm 1 mps 683 mmHg 26%
    14:00 +33°C° 0 mm 0 mps 683 mmHg 25%
    15:00 +34°C° 0 mm 1 mps 682 mmHg 28%
    16:00 +34°C° 0 mm 2 mps 682 mmHg 30%
    17:00 +32°C° 0 mm 2 mps 682 mmHg 33%
    18:00 +31°C° 0 mm 3 mps 682 mmHg 34%
    19:00 +31°C° 0 mm 3 mps 683 mmHg 36%
    20:00 +30°C° 0 mm 3 mps 684 mmHg 37%
    21:00 +29°C° 0 mm 3 mps 684 mmHg 41%
    22:00 +29°C° 0 mm 3 mps 684 mmHg 45%
    23:00 +28°C° 0 mm 3 mps 684 mmHg 48%

    8 April, Wednesday

    Time Temperature Precipitation Wind Pressure Humidity
    00:00 +27°C° 0 mm 3 mps 683 mmHg 52%
    01:00 +27°C° 0 mm 2 mps 683 mmHg 56%
    02:00 +26°C° 0 mm 2 mps 682 mmHg 60%
    03:00 +25°C° 0 mm 2 mps 682 mmHg 64%
    04:00 +25°C° 0 mm 2 mps 682 mmHg 67%
    05:00 +24°C° 0 mm 2 mps 682 mmHg 71%
    06:00 +26°C° 0 mm 3 mps 683 mmHg 63%
    07:00 +27°C° 0 mm 3 mps 684 mmHg 55%
    08:00 +29°C° 0 mm 4 mps 685 mmHg 46%
    09:00 +32°C° 0 mm 4 mps 685 mmHg 39%
    10:00 +34°C° 0 mm 3 mps 685 mmHg 31%
    11:00 +36°C° 0 mm 3 mps 685 mmHg 24%
    12:00 +36°C° 0 mm 3 mps 684 mmHg 23%
    13:00 +36°C° 0 mm 3 mps 683 mmHg 23%
    14:00 +36°C° 0 mm 3 mps 682 mmHg 23%
    15:00 +36°C° 0 mm 3 mps 682 mmHg 23%
    16:00 +36°C° 0 mm 3 mps 682 mmHg 22%
    17:00 +36°C° 0 mm 3 mps 682 mmHg 22%
    18:00 +34°C° 0 mm 3 mps 682 mmHg 25%
    19:00 +32°C° 0 mm 2 mps 682 mmHg 27%
    20:00 +30°C° 0 mm 1 mps 683 mmHg 30%
    21:00 +29°C° 0 mm 2 mps 683 mmHg 40%
    22:00 +28°C° 0 mm 3 mps 683 mmHg 51%
    23:00 +27°C° 0 mm 4 mps 683 mmHg 61%
    Show more